Regional Weather Roundup
Issued by NWS Jackson, KY

Home | Current Version | Previous Version | Text Only | Print | Product List | Glossary Off
Versions: 1 2 3 4 5 6 7 8 9 10 11 12 13 14 15 16 17 18 19 20 21 22 23 24 25 26 27 28 29 30 31 32 33 34 35 36 37 38 39 40 41 42 43 44 45 46 47 48 49 50

078
ASUS43 KJKL 190910
RWRJKL

EAST KENTUCKY HOURLY WEATHER ROUNDUP
NATIONAL WEATHER SERVICE JACKSON KY
500 AM EDT TUE SEP 19 2017

NOTE: "FAIR" INDICATES FEW OR NO CLOUDS BELOW 12,000 FEET WITH
NO SIGNIFICANT WEATHER AND/OR OBSTRUCTIONS TO VISIBILITY.

* THESE REPORTS ARE NOT UNDER NWS QUALITY CONTROL AND MAY NOT
  REPORT WEATHER SUCH AS PRECIPITATION AND FOG.

KYZ079-080-083-085-087-088-110-112-115-119-120-191000
...EASTERN KENTUCKY...

CITY           SKY/WX    TMP DP  RH WIND       PRES   REMARKS
JACKSON        CLOUDY    65  61  87 CALM      30.01F
LONDON         CLOUDY    66  63  90 CALM      30.01S
SOMERSET*      CLOUDY    63  63 100 CALM      30.01S FOG
MONTICELLO*    MOCLDY    60  59  96 W7        30.01S FOG
WILLIAMSBURG*  CLOUDY    63  63 100 CALM      30.01S
MIDDLESBORO*   FOG       62  62 100 CALM      30.03S VSB 3/4
HARLAN APT*    CLOUDY    59  59 100 CALM      30.04S VSB 1/4
PIKE CO APT*     N/A     62  62 100 CALM      30.02S
BIG SANDY APT* FOG       60  60 100 CALM      30.01F VSB 3/4
MOREHEAD APT*  CLOUDY    66  63  88 SE5       30.01S
$$

KYZ035-036-041-042-044-050-067-078-099-191000
...CENTRAL KENTUCKY...

CITY           SKY/WX    TMP DP  RH WIND       PRES   REMARKS
MT STERLING*   CLOUDY    64  64 100 CALM      30.01S
FLEMING/MASON* CLOUDY    66  63  88 CALM      30.01R
DANVILLE*      CLOUDY    66  64  94 CALM      30.01S
LEXINGTON      CLOUDY    70  65  84 S5        29.99F
FRANKFORT      CLOUDY    70  66  87 SE3       29.97R
LOUISVILLE     CLOUDY    73  69  87 E6        29.94F
LEBANON*       PTSUNNY   72  66  83 SE8       29.97F
GLASGOW*       PTCLDY   N/A N/A N/A CALM      29.96F FOG
BOWLING GREEN  FOG       66  66 100 CALM      29.96S VSB 1/2
$$

KYZ091>093-OHZ055-061-077-WVZ005-015-034-035-042-191000
...SOUTHERN OHIO/WEST VIRGINIA...

CITY           SKY/WX    TMP DP  RH WIND       PRES   REMARKS
COVINGTON      CLOUDY    70  67  90 SE6       29.97S
COLUMBUS       CLOUDY    70  66  87 CALM      29.98S
DAYTON         CLOUDY    68  65  90 SE6       29.99S
WILMINGTON     MOCLDY    68  66  93 SE3       29.98F
HUNTINGTON     FOG       62  61  96 E3        29.99F VSB 3/4
CHARLESTON     FOG       62  60  93 CALM      30.00F VSB 1/2
PINEVILLE*     FOG       61  60  96 MISG      30.10R VSB 1/2
BECKLEY        CLEAR     61  59  93 S3        30.07F
BLUEFIELD      CLEAR     62  58  86 CALM      30.09S
LOGAN CO APT*  FOG       63  63 100 CALM      30.03S VSB 1
$$

VAZ002-007-008-TNZ017-027-036-066-071-191000
...SOUTHWEST VIRGINIA/EAST TENNESSEE...

CITY           SKY/WX    TMP DP  RH WIND       PRES   REMARKS
WISE*          CLEAR     63  61  94 CALM      30.08S
JONESVILLE*    CLOUDY    55  55 100 CALM      30.05S FOG
ABINGDON*      CLEAR     61  60  96 E7        30.06S
BRISTOL        CLEAR     57  57 100 CALM      30.04R FOG
MORRISTOWN*    SUNNY     63  61  94 CALM      30.01S
SEVIERVILLE*   SUNNY     59  57  94 CALM      30.01R
KNOXVILLE      CLEAR     64  62  93 E3        30.00S
LAFOLLETTE*    FOG       61  61 100 CALM      30.05S VSB 0
OAK RIDGE      MOCLDY    64  62  93 CALM      30.02S FOG
CROSSVILLE     CLEAR     61  59  93 CALM      30.04S
NASHVILLE      PTCLDY    68  66  93 S5        29.97S
$$

...KEY TO REMARKS...
VSB - VISIBILITY IN MILES
WCI - WIND CHILL INDEX
HX  - HEAT INDEX

$$




USA.gov is the U.S. government's official web portal to all federal, state and local government web resources and services.